Hamilton Island, Australia

2:54 PM AEST on March 25, 2017 (GMT +1000)
Hamilton Island

Weather History for YBHM - August, 2014

Change the Weather History Date:

Monday, August 11, 2014

  Actual Average Record
Temperature  
Mean Temperature 67 °F -  
Max Temperature 70 °F - - ()
Min Temperature 64 °F - - ()
Cooling Degree Days 2    
Growing Degree Days 17 (Base 50)    
Moisture  
Dew Point 62 °F    
Average Humidity 84    
Maximum Humidity 94    
Minimum Humidity 73    
Precipitation  
Precipitation 0.00 in - - ()
Sea Level Pressure  
Sea Level Pressure 30.11 in    
Wind  
Wind Speed 14 mph ()    
Max Wind Speed 17 mph    
Max Gust Speed -    
Visibility 6.2 miles    
Events      
T = Trace of Precipitation, MM = Missing Value Source: Averaged Metar Reports

Daily Weather History Graph

Daily Weather History Graph

Search for Another Location

Airport or City:

Trip Planner

Search our weather history database for the weather conditions in past years. The results will help you decide how hot, cold, wet, or windy it might be!

Date:

Astronomy

Aug. 11, 2014 Rise Set
Actual Time 6:29 AM AEST 5:49 PM AEST
Civil Twilight 6:06 AM AEST 6:12 PM AEST
Nautical Twilight 5:40 AM AEST 6:39 PM AEST
Astronomical Twilight 5:14 AM AEST 7:05 PM AEST
Moon 6:24 PM AEST (8/11) 6:24 AM AEST (8/11)
Length of Visible Light 12h 06m
Length of Day
11h 20m
Full, 100% of the Moon is Illuminated
Aug 11
Full
Aug 17
Last Quarter
Aug 26
New
Sep 2
First Quarter
Sep 9
Full

Hourly Weather History & Observations

Time (AEST) Temp. Dew Point Humidity Pressure Visibility Wind Dir Wind Speed Gust Speed Precip Events Conditions
12:00 AM 67 °F 63 °F 84% 30.17 in - SSE 15.0 mph - -   Overcast
12:00 AM 68.0 °F 62.6 °F 83% 30.15 in 6.2 mi SSE 15.0 mph - N/A   Overcast
12:30 AM 68.0 °F 62.6 °F 83% 30.15 in 6.2 mi SSE 17.3 mph - N/A   Overcast
1:00 AM 66.2 °F 64.4 °F 94% 30.15 in 6.2 mi SSE 17.3 mph - N/A   Scattered Clouds
1:30 AM 66.2 °F 64.4 °F 94% 30.15 in 6.2 mi SSE 17.3 mph - N/A   Scattered Clouds
2:00 AM 66.2 °F 64.4 °F 94% 30.12 in 6.2 mi SSE 17.3 mph - N/A   Scattered Clouds
2:20 AM 66.2 °F 62.6 °F 88% 30.12 in 6.2 mi SSE 17.3 mph - N/A   Mostly Cloudy
2:30 AM 66.2 °F 64.4 °F 94% 30.12 in 6.2 mi SSE 15.0 mph - N/A   Mostly Cloudy
3:00 AM 66 °F 63 °F 88% 30.13 in - SSE 13.8 mph - -   Overcast
3:00 AM 66.2 °F 62.6 °F 88% 30.12 in 6.2 mi SSE 13.8 mph - N/A   Mostly Cloudy
3:30 AM 66.2 °F 62.6 °F 88% 30.12 in 6.2 mi SSE 16.1 mph - N/A   Mostly Cloudy
4:00 AM 66.2 °F 62.6 °F 88% 30.12 in 6.2 mi SSE 17.3 mph - N/A   Mostly Cloudy
4:30 AM 64.4 °F 62.6 °F 94% 30.09 in 6.2 mi SSE 13.8 mph - N/A   Mostly Cloudy
5:00 AM 64.4 °F 62.6 °F 94% 30.09 in 6.2 mi SSE 16.1 mph - N/A   Mostly Cloudy
5:30 AM 64.4 °F 62.6 °F 94% 30.12 in 6.2 mi SSE 16.1 mph - N/A   Mostly Cloudy
6:00 AM 65 °F 63 °F 91% 30.12 in - SSE 16.1 mph - -   Overcast
6:00 AM 64.4 °F 62.6 °F 94% 30.12 in 6.2 mi SSE 16.1 mph - N/A   Mostly Cloudy
6:30 AM 64.4 °F 62.6 °F 94% 30.12 in 6.2 mi SSE 16.1 mph - N/A   Mostly Cloudy
6:43 AM 66.2 °F 62.6 °F 88% 30.12 in 6.2 mi SSE 15.0 mph - N/A   Scattered Clouds
7:00 AM 66.2 °F 62.6 °F 88% 30.12 in 6.2 mi SSE 15.0 mph - N/A   Mostly Cloudy
7:30 AM 66.2 °F 62.6 °F 88% 30.12 in 6.2 mi SSE 15.0 mph - N/A   Overcast
8:00 AM 68.0 °F 62.6 °F 83% 30.12 in 6.2 mi SSE 16.1 mph - N/A   Mostly Cloudy
8:30 AM 68.0 °F 62.6 °F 83% 30.15 in 6.2 mi SSE 15.0 mph - N/A   Mostly Cloudy
9:00 AM 68 °F 63 °F 78% 30.16 in - SSE 16.1 mph - -   Overcast
9:00 AM 68.0 °F 62.6 °F 83% 30.15 in 6.2 mi SSE 16.1 mph - N/A   Mostly Cloudy
9:30 AM 68.0 °F 62.6 °F 83% 30.15 in 6.2 mi SSE 17.3 mph - N/A   Mostly Cloudy
10:00 AM 69.8 °F 62.6 °F 78% 30.15 in 6.2 mi SSE 16.1 mph - N/A   Mostly Cloudy
10:19 AM 69.8 °F 62.6 °F 78% 30.15 in 6.2 mi SSE 16.1 mph - N/A   Mostly Cloudy
10:30 AM 68.0 °F 62.6 °F 83% 30.15 in 6.2 mi SSE 15.0 mph - N/A   Mostly Cloudy
11:00 AM 69.8 °F 62.6 °F 78% 30.12 in 6.2 mi SSE 16.1 mph - N/A   Mostly Cloudy
11:30 AM 69.8 °F 62.6 °F 78% 30.12 in 6.2 mi SSE 15.0 mph - N/A   Scattered Clouds
12:00 PM 70 °F 63 °F 73% 30.13 in - SSE 16.1 mph - -  
12:00 PM 69.8 °F 62.6 °F 78% 30.12 in 6.2 mi SSE 16.1 mph - N/A   Unknown
12:30 PM 69.8 °F 62.6 °F 78% 30.12 in 6.2 mi SSE 15.0 mph - N/A   Scattered Clouds
1:00 PM 69.8 °F 62.6 °F 78% 30.09 in 6.2 mi SSE 13.8 mph - N/A   Unknown
2:00 PM 69.8 °F 64.4 °F 83% 30.06 in 6.2 mi SSE 15.0 mph - N/A   Unknown
2:30 PM 69.8 °F 64.4 °F 83% 30.06 in 6.2 mi SSE 12.7 mph - N/A   Unknown
3:00 PM 69 °F 64 °F 79% 30.07 in - SSE 13.8 mph - -  
3:00 PM 69.8 °F 64.4 °F 83% 30.06 in 6.2 mi SSE 13.8 mph - N/A   Unknown
3:30 PM 69.8 °F 60.8 °F 73% 30.06 in 6.2 mi SE 12.7 mph - N/A   Unknown
4:00 PM 69.8 °F 60.8 °F 73% 30.06 in 6.2 mi ESE 13.8 mph - N/A   Unknown
4:30 PM 68.0 °F 60.8 °F 78% 30.06 in 6.2 mi ESE 15.0 mph - N/A   Unknown
5:00 PM 68.0 °F 60.8 °F 78% 30.06 in 6.2 mi ESE 15.0 mph - N/A   Unknown
5:30 PM 68.0 °F 62.6 °F 83% 30.06 in 6.2 mi ESE 15.0 mph - N/A   Unknown
6:00 PM 67 °F 62 °F 77% 30.09 in - ESE 15.0 mph - -  
6:00 PM 66.2 °F 60.8 °F 83% 30.09 in 6.2 mi ESE 15.0 mph - N/A   Unknown
6:30 PM 66.2 °F 62.6 °F 88% 30.09 in 6.2 mi ESE 16.1 mph - N/A   Scattered Clouds
7:00 PM 66.2 °F 62.6 °F 88% 30.09 in 6.2 mi ESE 15.0 mph - N/A   Unknown
7:30 PM 66.2 °F 62.6 °F 88% 30.12 in 6.2 mi ESE 15.0 mph - N/A   Unknown
8:00 PM 66.2 °F 62.6 °F 88% 30.12 in 6.2 mi ESE 13.8 mph - N/A   Scattered Clouds
8:30 PM 68.0 °F 62.6 °F 83% 30.12 in 6.2 mi ESE 12.7 mph - N/A   Unknown
9:00 PM 67 °F 61 °F 77% 30.14 in - ESE 12.7 mph - -  
9:00 PM 68.0 °F 60.8 °F 78% 30.12 in 6.2 mi ESE 12.7 mph - N/A   Unknown
9:30 PM 66.2 °F 60.8 °F 83% 30.12 in 6.2 mi SE 11.5 mph - N/A   Unknown
10:00 PM 66.2 °F 60.8 °F 83% 30.12 in 6.2 mi SE 10.4 mph - N/A   Unknown
10:30 PM 66.2 °F 59.0 °F 78% 30.12 in 6.2 mi SE 12.7 mph - N/A   Unknown
11:00 PM 66.2 °F 59.0 °F 78% 30.12 in 6.2 mi SE 12.7 mph - N/A   Unknown
11:30 PM 66.2 °F 60.8 °F 83% 30.12 in 6.2 mi SE 12.7 mph - N/A   Unknown